Location: Zagreb
(45.8000°N, 16.0000°E)
Time: 18:50:34
(UTC+02:00)

A-11 Canister half - Pass Details

Date: 17 August 2022
Orbit: 1524 x 1684 km, 47.3° (Epoch: 05 October)

Event Time Altitude Azimuth Distance (km) Brightness Sun altitude
Rises 04:23:50 0° 219° (SW) 4,865 - -15.1°
Reaches altitude 10° 04:27:03 10° 215° (SW) 3,897 - -14.7°
Exits shadow 04:28:27 15° 212° (SSW) 3,490 10.3 -14.5°
Maximum altitude 04:36:36 52° 143° (SE) 2,022 9.6 -13.3°
Drops below altitude 10° 04:46:16 10° 72° (ENE) 3,951 12.5 -12.0°
Sets 04:49:32 0° 67° (ENE) 4,936 13.6 -11.5°
